Wetterdaten: Woche 13.03.06 - 19.03.06 (KW11)
Datum Zeit Temperatur Luftfeuchte Luftdruck Niederschlag Windrichtung Wind
13.03.2006 00:00 -7,0 C 83 % 1027 hPa 0,0 l/m N-NO 12,2 km/h (2 Bft)
13.03.2006 01:00 -6,7 C 83 % 1027 hPa 0,0 l/m N-NO 12,0 km/h (2 Bft)
13.03.2006 02:00 -7,3 C 81 % 1027 hPa 0,0 l/m N-NO 11,2 km/h (2 Bft)
13.03.2006 03:00 -7,3 C 83 % 1026 hPa 0,0 l/m N-NO 10,3 km/h (2 Bft)
13.03.2006 04:00 -7,1 C 80 % 1026 hPa 0,0 l/m N-NO 13,0 km/h (3 Bft)
13.03.2006 05:00 -7,7 C 79 % 1026 hPa 0,0 l/m N-NO 12,3 km/h (3 Bft)
13.03.2006 06:00 -8,3 C 81 % 1026 hPa 0,0 l/m N-NO 13,4 km/h (3 Bft)
13.03.2006 07:00 -8,0 C 82 % 1026 hPa 0,0 l/m N-NO 12,9 km/h (3 Bft)
13.03.2006 08:00 -6,9 C 78 % 1026 hPa 0,0 l/m N-NO 17,2 km/h (3 Bft)
13.03.2006 09:00 -5,9 C 71 % 1026 hPa 0,0 l/m O-NO 21,2 km/h (4 Bft)
13.03.2006 10:00 -4,3 C 60 % 1026 hPa 0,0 l/m O-NO 22,4 km/h (4 Bft)
13.03.2006 11:00 -3,5 C 58 % 1025 hPa 0,0 l/m N-NO 21,3 km/h (4 Bft)
13.03.2006 12:00 -2,3 C 53 % 1025 hPa 0,0 l/m N-NO 23,8 km/h (4 Bft)
13.03.2006 13:00 -1,7 C 50 % 1025 hPa 0,0 l/m N-NO 25,5 km/h (4 Bft)
13.03.2006 14:00 -0,8 C 47 % 1024 hPa 0,0 l/m O-NO 25,8 km/h (4 Bft)
13.03.2006 15:00 -1,1 C 47 % 1024 hPa 0,0 l/m NO 23,2 km/h (4 Bft)
13.03.2006 16:00 -1,5 C 44 % 1024 hPa 0,0 l/m O-NO 25,6 km/h (4 Bft)
13.03.2006 17:00 -2,1 C 45 % 1023 hPa 0,0 l/m O-NO 20,0 km/h (4 Bft)
13.03.2006 18:00 -3,2 C 47 % 1024 hPa 0,0 l/m O-NO 15,2 km/h (3 Bft)
13.03.2006 19:00 -4,0 C 53 % 1024 hPa 0,0 l/m O-NO 12,5 km/h (3 Bft)
13.03.2006 20:00 -4,5 C 55 % 1024 hPa 0,0 l/m O-NO 11,4 km/h (2 Bft)
13.03.2006 21:00 -4,9 C 57 % 1024 hPa 0,0 l/m NO 11,5 km/h (2 Bft)
13.03.2006 22:00 -5,4 C 59 % 1024 hPa 0,0 l/m N-NO 10,4 km/h (2 Bft)
13.03.2006 23:00 -5,7 C 61 % 1024 hPa 0,0 l/m N-NO 11,8 km/h (2 Bft)
14.03.2006 00:00 -6,1 C 64 % 1023 hPa 0,0 l/m N-NO 10,3 km/h (2 Bft)
14.03.2006 01:00 -6,3 C 67 % 1023 hPa 0,0 l/m N-NO 12,6 km/h (3 Bft)
14.03.2006 02:00 -6,7 C 69 % 1023 hPa 0,0 l/m N 13,0 km/h (3 Bft)
14.03.2006 03:00 -7,0 C 73 % 1023 hPa 0,0 l/m N-NO 11,9 km/h (2 Bft)
14.03.2006 04:00 -7,6 C 77 % 1023 hPa 0,0 l/m N-NO 8,3 km/h (2 Bft)
14.03.2006 05:00 -8,1 C 80 % 1023 hPa 0,0 l/m N-NO 4,7 km/h (1 Bft)
14.03.2006 06:00 -8,8 C 81 % 1023 hPa 0,0 l/m N 6,6 km/h (2 Bft)
14.03.2006 07:00 -8,7 C 83 % 1023 hPa 0,0 l/m N 4,1 km/h (1 Bft)
14.03.2006 08:00 -7,2 C 82 % 1023 hPa 0,0 l/m N-NO 10,8 km/h (2 Bft)
14.03.2006 09:00 -4,9 C 68 % 1023 hPa 0,0 l/m N-NO 12,5 km/h (3 Bft)
14.03.2006 10:00 -2,8 C 56 % 1023 hPa 0,0 l/m N-NO 14,2 km/h (3 Bft)
14.03.2006 11:00 -1,2 C 51 % 1022 hPa 0,0 l/m O-NO 19,8 km/h (3 Bft)
14.03.2006 12:00 0,6 C 47 % 1022 hPa 0,0 l/m NO 19,8 km/h (4 Bft)
14.03.2006 13:00 2,4 C 44 % 1022 hPa 0,0 l/m N-NO 16,1 km/h (3 Bft)
14.03.2006 14:00 3,2 C 43 % 1021 hPa 0,0 l/m O 17,6 km/h (3 Bft)
14.03.2006 15:00 2,6 C 45 % 1020 hPa 0,0 l/m O-NO 18,2 km/h (3 Bft)
14.03.2006 16:00 2,3 C 46 % 1020 hPa 0,0 l/m NO 17,2 km/h (3 Bft)
14.03.2006 17:00 1,7 C 48 % 1020 hPa 0,0 l/m NO 16,1 km/h (3 Bft)
14.03.2006 18:00 0,3 C 52 % 1021 hPa 0,0 l/m N-NO 7,6 km/h (2 Bft)
14.03.2006 19:00 -1,0 C 56 % 1020 hPa 0,0 l/m O-NO 10,3 km/h (2 Bft)
14.03.2006 20:00 -1,8 C 58 % 1020 hPa 0,0 l/m NO 8,8 km/h (2 Bft)
14.03.2006 21:00 -2,3 C 59 % 1020 hPa 0,0 l/m N-NO 10,7 km/h (2 Bft)
14.03.2006 22:00 -2,8 C 61 % 1020 hPa 0,0 l/m NO 7,4 km/h (2 Bft)
14.03.2006 23:00 -3,5 C 65 % 1020 hPa 0,0 l/m N 6,6 km/h (2 Bft)
15.03.2006 00:00 -3,8 C 67 % 1019 hPa 0,0 l/m N-NO 8,5 km/h (2 Bft)
15.03.2006 01:00 -4,2 C 69 % 1019 hPa 0,0 l/m N-NO 9,0 km/h (2 Bft)
15.03.2006 02:00 -4,7 C 70 % 1018 hPa 0,0 l/m N 6,2 km/h (2 Bft)
15.03.2006 03:00 -5,4 C 74 % 1018 hPa 0,0 l/m N 7,7 km/h (2 Bft)
15.03.2006 04:00 -5,6 C 77 % 1017 hPa 0,0 l/m N 6,5 km/h (2 Bft)
15.03.2006 05:00 -6,0 C 78 % 1017 hPa 0,0 l/m N-NW 3,7 km/h (1 Bft)
15.03.2006 06:00 -6,1 C 81 % 1017 hPa 0,0 l/m N 6,9 km/h (2 Bft)
15.03.2006 07:00 -5,0 C 82 % 1017 hPa 0,0 l/m N-NO 11,8 km/h (2 Bft)
15.03.2006 08:00 -3,6 C 74 % 1017 hPa 0,0 l/m NO 13,5 km/h (3 Bft)
15.03.2006 09:00 -2,5 C 69 % 1017 hPa 0,0 l/m NO 14,1 km/h (3 Bft)
15.03.2006 10:00 -0,6 C 62 % 1017 hPa 0,0 l/m N-NO 16,4 km/h (3 Bft)
15.03.2006 11:00 0,6 C 57 % 1017 hPa 0,0 l/m NO 16,4 km/h (3 Bft)
15.03.2006 12:00 1,9 C 52 % 1017 hPa 0,0 l/m O-NO 19,7 km/h (3 Bft)
15.03.2006 13:00 2,0 C 53 % 1016 hPa 0,0 l/m N-NO 17,7 km/h (3 Bft)
15.03.2006 14:00 1,4 C 55 % 1016 hPa 0,0 l/m NO 15,6 km/h (3 Bft)
15.03.2006 15:00 0,8 C 57 % 1016 hPa 0,0 l/m NO 15,2 km/h (3 Bft)
15.03.2006 16:00 0,4 C 60 % 1016 hPa 0,0 l/m NO 13,3 km/h (3 Bft)
15.03.2006 17:00 -0,2 C 63 % 1016 hPa 0,0 l/m NO 14,1 km/h (3 Bft)
15.03.2006 18:00 -0,6 C 65 % 1017 hPa 0,0 l/m O-NO 11,9 km/h (2 Bft)
15.03.2006 19:00 -0,9 C 67 % 1017 hPa 0,0 l/m O-NO 13,5 km/h (3 Bft)
15.03.2006 20:00 -1,1 C 67 % 1017 hPa 0,0 l/m O-NO 13,2 km/h (3 Bft)
15.03.2006 21:00 -1,1 C 67 % 1017 hPa 0,0 l/m NO 13,0 km/h (3 Bft)
15.03.2006 22:00 -1,3 C 67 % 1017 hPa 0,0 l/m O-NO 11,7 km/h (2 Bft)
15.03.2006 23:00 -1,5 C 67 % 1017 hPa 0,0 l/m NO 13,4 km/h (3 Bft)
16.03.2006 00:00 -1,7 C 67 % 1017 hPa 0,0 l/m N-NO 13,3 km/h (3 Bft)
16.03.2006 01:00 -1,8 C 69 % 1016 hPa 0,0 l/m NO 13,5 km/h (3 Bft)
16.03.2006 02:00 -1,8 C 66 % 1016 hPa 0,0 l/m NO 14,6 km/h (3 Bft)
16.03.2006 03:00 -1,9 C 66 % 1016 hPa 0,0 l/m NO 15,6 km/h (3 Bft)
16.03.2006 04:00 -1,9 C 65 % 1017 hPa 0,0 l/m NO 14,4 km/h (3 Bft)
16.03.2006 05:00 -1,9 C 66 % 1017 hPa 0,0 l/m O-NO 13,3 km/h (3 Bft)
16.03.2006 06:00 -2,0 C 66 % 1017 hPa 0,0 l/m NO 13,0 km/h (3 Bft)
16.03.2006 07:00 -2,2 C 65 % 1017 hPa 0,0 l/m N-NO 14,4 km/h (3 Bft)
16.03.2006 08:00 -2,3 C 69 % 1018 hPa 0,0 l/m NO 14,2 km/h (3 Bft)
16.03.2006 09:00 -2,0 C 71 % 1018 hPa 0,0 l/m NO 15,1 km/h (3 Bft)
16.03.2006 10:00 -1,3 C 67 % 1018 hPa 0,0 l/m NO 15,9 km/h (3 Bft)
16.03.2006 11:00 -0,7 C 61 % 1018 hPa 0,0 l/m N-NO 15,3 km/h (3 Bft)
16.03.2006 12:00 -0,7 C 61 % 1018 hPa 0,0 l/m NO 14,7 km/h (3 Bft)
16.03.2006 13:00 -0,8 C 59 % 1018 hPa 0,0 l/m NO 15,3 km/h (3 Bft)
16.03.2006 14:00 -0,6 C 57 % 1018 hPa 0,0 l/m NO 14,7 km/h (3 Bft)
16.03.2006 15:00 -0,7 C 55 % 1018 hPa 0,0 l/m N-NO 14,4 km/h (3 Bft)
16.03.2006 16:00 -0,9 C 57 % 1018 hPa 0,0 l/m NO 13,8 km/h (3 Bft)
16.03.2006 17:00 -1,2 C 56 % 1018 hPa 0,0 l/m N-NO 13,6 km/h (3 Bft)
16.03.2006 18:00 -1,5 C 57 % 1019 hPa 0,0 l/m N-NO 13,9 km/h (3 Bft)
16.03.2006 19:00 -1,8 C 57 % 1019 hPa 0,0 l/m N-NO 14,1 km/h (3 Bft)
16.03.2006 20:00 -2,0 C 60 % 1019 hPa 0,0 l/m N-NO 11,1 km/h (2 Bft)
16.03.2006 21:00 -2,1 C 60 % 1019 hPa 0,0 l/m N-NO 10,6 km/h (2 Bft)
16.03.2006 22:00 -2,2 C 62 % 1019 hPa 0,0 l/m N-NO 11,9 km/h (2 Bft)
16.03.2006 23:00 -2,2 C 63 % 1019 hPa 0,0 l/m O-NO 14,1 km/h (3 Bft)
17.03.2006 00:00 -2,2 C 65 % 1019 hPa 0,0 l/m NO 11,4 km/h (2 Bft)
17.03.2006 01:00 -2,2 C 65 % 1019 hPa 0,0 l/m N-NO 11,3 km/h (2 Bft)
17.03.2006 02:00 -2,1 C 63 % 1018 hPa 0,0 l/m O-NO 14,1 km/h (3 Bft)
17.03.2006 03:00 -2,3 C 63 % 1018 hPa 0,0 l/m O-NO 13,3 km/h (3 Bft)
17.03.2006 04:00 -2,2 C 65 % 1018 hPa 0,0 l/m O 11,7 km/h (2 Bft)
17.03.2006 05:00 -2,2 C 66 % 1018 hPa 0,0 l/m O 15,4 km/h (3 Bft)
17.03.2006 06:00 -2,3 C 67 % 1018 hPa 0,0 l/m O 14,9 km/h (3 Bft)
17.03.2006 07:00 -2,1 C 66 % 1018 hPa 0,0 l/m O 10,4 km/h (2 Bft)
17.03.2006 08:00 -1,5 C 67 % 1019 hPa 0,0 l/m O 13,7 km/h (3 Bft)
17.03.2006 09:00 -1,0 C 63 % 1019 hPa 0,0 l/m O 14,8 km/h (3 Bft)
17.03.2006 10:00 -0,1 C 60 % 1019 hPa 0,0 l/m O 13,2 km/h (3 Bft)
17.03.2006 11:00 0,3 C 59 % 1019 hPa 0,0 l/m N-NO 13,8 km/h (3 Bft)
17.03.2006 12:00 1,0 C 56 % 1019 hPa 0,0 l/m NO 13,2 km/h (3 Bft)
17.03.2006 13:00 1,8 C 53 % 1019 hPa 0,0 l/m NO 14,9 km/h (3 Bft)
17.03.2006 14:00 3,3 C 49 % 1018 hPa 0,0 l/m O 15,6 km/h (3 Bft)
17.03.2006 15:00 3,1 C 49 % 1018 hPa 0,0 l/m O 14,9 km/h (3 Bft)
17.03.2006 16:00 2,8 C 51 % 1018 hPa 0,0 l/m NO 13,8 km/h (3 Bft)
17.03.2006 17:00 1,9 C 53 % 1018 hPa 0,0 l/m NO 12,1 km/h (2 Bft)
17.03.2006 18:00 1,0 C 58 % 1018 hPa 0,0 l/m N-NO 13,3 km/h (3 Bft)
17.03.2006 19:00 0,1 C 64 % 1018 hPa 0,0 l/m N-NO 11,8 km/h (2 Bft)
17.03.2006 20:00 -0,6 C 68 % 1018 hPa 0,0 l/m N-NO 11,4 km/h (2 Bft)
17.03.2006 21:00 -1,2 C 73 % 1018 hPa 0,0 l/m N-NO 9,3 km/h (2 Bft)
17.03.2006 22:00 -1,7 C 78 % 1018 hPa 0,0 l/m N-NO 8,6 km/h (2 Bft)
17.03.2006 23:00 -1,8 C 82 % 1017 hPa 0,0 l/m N-NO 11,7 km/h (2 Bft)
18.03.2006 00:00 -1,5 C 81 % 1017 hPa 0,0 l/m NO 14,4 km/h (3 Bft)
18.03.2006 01:00 -1,5 C 80 % 1017 hPa 0,0 l/m NO 17,4 km/h (3 Bft)
18.03.2006 02:00 -1,3 C 77 % 1017 hPa 0,0 l/m O-NO 17,9 km/h (3 Bft)
18.03.2006 03:00 -1,2 C 76 % 1016 hPa 0,0 l/m O-NO 17,6 km/h (3 Bft)
18.03.2006 04:00 -1,2 C 75 % 1016 hPa 0,0 l/m O-NO 18,2 km/h (3 Bft)
18.03.2006 05:00 -1,4 C 76 % 1016 hPa 0,0 l/m O-NO 22,5 km/h (4 Bft)
18.03.2006 06:00 -1,3 C 74 % 1016 hPa 0,0 l/m O-NO 21,5 km/h (4 Bft)
18.03.2006 07:00 -1,2 C 72 % 1016 hPa 0,0 l/m O 22,2 km/h (4 Bft)
18.03.2006 08:00 -0,9 C 69 % 1016 hPa 0,0 l/m NO 18,4 km/h (3 Bft)
18.03.2006 09:00 -0,3 C 65 % 1016 hPa 0,0 l/m NO 19,5 km/h (3 Bft)
18.03.2006 10:00 0,5 C 61 % 1016 hPa 0,0 l/m O-NO 20,8 km/h (4 Bft)
18.03.2006 11:00 1,5 C 57 % 1016 hPa 0,0 l/m O-NO 24,0 km/h (4 Bft)
18.03.2006 12:00 2,1 C 55 % 1016 hPa 0,0 l/m NO 21,7 km/h (4 Bft)
18.03.2006 13:00 3,3 C 52 % 1015 hPa 0,0 l/m N-NO 22,8 km/h (4 Bft)
18.03.2006 14:00 4,3 C 48 % 1014 hPa 0,0 l/m NO 23,4 km/h (4 Bft)
18.03.2006 15:00 4,2 C 47 % 1014 hPa 0,0 l/m O-NO 25,1 km/h (4 Bft)
18.03.2006 16:00 4,0 C 47 % 1014 hPa 0,0 l/m O 22,7 km/h (4 Bft)
18.03.2006 17:00 3,4 C 48 % 1013 hPa 0,0 l/m O-NO 20,6 km/h (4 Bft)
18.03.2006 18:00 2,0 C 54 % 1013 hPa 0,0 l/m NO 16,2 km/h (3 Bft)
18.03.2006 19:00 1,1 C 59 % 1013 hPa 0,0 l/m NO 16,8 km/h (3 Bft)
18.03.2006 20:00 0,5 C 63 % 1013 hPa 0,0 l/m N-NO 15,2 km/h (3 Bft)
18.03.2006 21:00 -0,0 C 67 % 1013 hPa 0,0 l/m N-NO 14,8 km/h (3 Bft)
18.03.2006 22:00 -0,5 C 70 % 1013 hPa 0,0 l/m N-NO 14,2 km/h (3 Bft)
18.03.2006 23:00 -0,8 C 72 % 1013 hPa 0,0 l/m N-NO 13,6 km/h (3 Bft)
19.03.2006 00:00 -1,3 C 74 % 1012 hPa 0,0 l/m N-NO 11,4 km/h (2 Bft)
19.03.2006 01:00 -1,9 C 78 % 1012 hPa 0,0 l/m N 9,5 km/h (2 Bft)
19.03.2006 02:00 -2,5 C 81 % 1011 hPa 0,0 l/m N 7,7 km/h (2 Bft)
19.03.2006 03:00 -3,0 C 84 % 1011 hPa 0,0 l/m N 9,7 km/h (2 Bft)
19.03.2006 04:00 -3,2 C 89 % 1011 hPa 0,0 l/m N 10,5 km/h (2 Bft)
19.03.2006 05:00 -2,7 C 91 % 1011 hPa 0,0 l/m N-NO 12,4 km/h (3 Bft)
19.03.2006 06:00 -2,6 C 90 % 1011 hPa 0,0 l/m N-NO 11,7 km/h (2 Bft)
19.03.2006 07:00 -2,4 C 90 % 1011 hPa 0,0 l/m NO 9,8 km/h (2 Bft)
19.03.2006 08:00 -2,1 C 89 % 1012 hPa 0,0 l/m O 10,4 km/h (2 Bft)
19.03.2006 09:00 -1,5 C 85 % 1012 hPa 0,0 l/m O 10,6 km/h (2 Bft)
19.03.2006 10:00 -0,6 C 79 % 1012 hPa 0,0 l/m N-NO 10,5 km/h (2 Bft)
19.03.2006 11:00 1,2 C 71 % 1012 hPa 0,0 l/m O 11,2 km/h (2 Bft)
19.03.2006 12:00 4,0 C 57 % 1011 hPa 0,0 l/m N-NO 9,1 km/h (2 Bft)
19.03.2006 13:00 6,7 C 49 % 1011 hPa 0,0 l/m O-NO 10,2 km/h (2 Bft)
19.03.2006 14:00 8,1 C 45 % 1010 hPa 0,0 l/m N-NO 9,6 km/h (2 Bft)
19.03.2006 15:00 7,7 C 49 % 1010 hPa 0,0 l/m N-NO 11,3 km/h (2 Bft)
19.03.2006 16:00 7,4 C 50 % 1009 hPa 0,0 l/m N-NO 9,3 km/h (2 Bft)
19.03.2006 17:00 7,4 C 49 % 1009 hPa 0,0 l/m NO 8,6 km/h (2 Bft)
19.03.2006 18:00 5,3 C 51 % 1010 hPa 0,0 l/m O-NO 5,4 km/h (1 Bft)
19.03.2006 19:00 2,6 C 56 % 1010 hPa 0,0 l/m N 0,0 km/h (0 Bft)
19.03.2006 20:00 0,7 C 62 % 1010 hPa 0,0 l/m N 0,0 km/h (0 Bft)
19.03.2006 21:00 -0,4 C 67 % 1010 hPa 0,0 l/m N 0,0 km/h (0 Bft)
19.03.2006 22:00 -1,2 C 72 % 1010 hPa 0,0 l/m N 0,0 km/h (0 Bft)
19.03.2006 23:00 -2,0 C 76 % 1010 hPa 0,0 l/m N 0,0 km/h (0 Bft)
Min-Datum _ 14.03.06 14.03.06 19.03.06 - - 13.03.06
_ Min-Zeit 06:45 13:21 16:03 - - 00:19
Minimum _ -9,0 C 43 % 1009 hPa - - 0,0 km/h (0 Bft)
Max-Datum _ 19.03.06 19.03.06 13.03.06 13.03.06 - 13.03.06
_ Max-Zeit 14:48 04:54 00:01 00:01 - 13:45
Maximum _ 8,4 C 91 % 1027 hPa 0,0 l/m - 39,3 km/h
N-NO (6 Bft)
Durchschnitt _ -1,5 C 65 % 1018 hPa #0,0 l/m N-NO 13,5 km/h (3 Bft)

Durchschnitt Minimum Temp.-1,8 C
Durchschnitt Maximum Temp.-1,1 C